FW2131 Weather Reports


Display with metric or nautical units.
time (UTC)temp
F
wind
direction
speed
MPH
gust
MPH
rain 1hr
in
rain 24hr
in
rain mn
in
humidity
%
barometer
mb
20210617192214 94 209 2.0 8.0 0.00 0.00 0.00 50 1015.8
20210617191709 94 304 3.0 5.0 0.00 0.00 0.00 47 1015.8
20210617191203 95 247 0.0 5.0 0.00 0.00 0.00 51 1015.8
20210617190656 94 157 0.0 5.0 0.00 0.00 0.00 45 1015.8
20210617190151 95 209 1.0 5.0 0.00 0.00 0.00 49 1015.8
20210617185646 94 211 0.0 8.0 0.00 0.00 0.00 46 1015.8
20210617185139 93 261 0.0 8.0 0.00 0.00 0.00 46 1015.8
20210617184634 94 211 1.0 5.0 0.00 0.00 0.00 45 1016.1
20210617184128 94 227 0.0 8.0 0.00 0.00 0.00 48 1016.1
20210617183622 94 264 2.0 8.0 0.00 0.00 0.00 46 1016.1
20210617183116 93 226 2.0 8.0 0.00 0.00 0.00 47 1016.4
20210617182610 94 137 2.0 8.0 0.00 0.00 0.00 47 1016.1
20210617182104 94 197 4.0 8.0 0.00 0.00 0.00 50 1016.1
20210617181559 93 175 4.0 5.0 0.00 0.00 0.00 46 1016.1
20210617181052 93 200 2.0 8.0 0.00 0.00 0.00 49 1016.4
20210617180547 93 252 4.0 8.0 0.00 0.00 0.00 47 1016.4
20210617180041 92 170 3.0 10.0 0.00 0.00 0.00 50 1016.4
20210617175535 92 212 5.0 10.0 0.00 0.00 0.00 48 1016.4
20210617175030 92 260 2.0 10.0 0.00 0.00 0.00 47 1016.4
20210617174524 92 269 1.0 13.0 0.00 0.00 0.00 49 1016.4
20210617174018 91 247 2.0 13.0 0.00 0.00 0.00 51 1016.4
20210617173513 92 254 2.0 10.0 0.00 0.00 0.00 51 1016.4
20210617173007 92 190 7.0 10.0 0.00 0.00 0.00 54 1016.4
20210617172501 92 242 2.0 10.0 0.00 0.00 0.00 56 1016.4
20210617171955 91 168 4.0 10.0 0.00 0.00 0.00 51 1016.8
20210617171453 91 158 8.0 10.0 0.00 0.00 0.00 52 1016.8
20210617170947 90 247 4.0 10.0 0.00 0.00 0.00 55 1016.8
20210617170442 91 238 2.0 10.0 0.00 0.00 0.00 54 1016.8
20210617165936 91 241 4.0 10.0 0.00 0.00 0.00 53 1016.8
20210617165430 91 185 4.0 10.0 0.00 0.00 0.00 55 1017.1
20210617164929 91 246 3.0 8.0 0.00 0.00 0.00 57 1017.1
20210617164419 91 228 4.0 10.0 0.00 0.00 0.00 55 1017.1
20210617163912 90 203 6.0 10.0 0.00 0.00 0.00 54 1017.1
20210617163407 91 250 5.0 10.0 0.00 0.00 0.00 55 1016.8
20210617162901 90 235 7.0 10.0 0.00 0.00 0.00 55 1017.1
20210617162356 90 220 6.0 10.0 0.00 0.00 0.00 54 1016.8
20210617161850 90 225 5.0 10.0 0.00 0.00 0.00 55 1016.8
20210617161344 90 216 3.0 8.0 0.00 0.00 0.00 54 1016.8
20210617160838 90 245 2.0 8.0 0.00 0.00 0.00 57 1016.8
20210617160332 90 245 6.0 8.0 0.00 0.00 0.00 55 1016.8
20210617155826 89 267 4.0 10.0 0.00 0.00 0.00 56 1017.1
20210617155320 90 176 3.0 10.0 0.00 0.00 0.00 56 1017.1
20210617154814 89 239 3.0 10.0 0.00 0.00 0.00 59 1016.8
20210617154309 90 237 2.0 8.0 0.00 0.00 0.00 59 1016.8
20210617153803 89 215 3.0 10.0 0.00 0.00 0.00 60 1017.1
20210617153257 89 251 5.0 10.0 0.00 0.00 0.00 60 1017.1
20210617152751 89 256 4.0 13.0 0.00 0.00 0.00 61 1016.8
20210617152246 88 236 9.0 13.0 0.00 0.00 0.00 60 1016.8
20210617151740 89 222 4.0 10.0 0.00 0.00 0.00 64 1016.8
20210617151234 88 236 6.0 10.0 0.00 0.00 0.00 62 1016.8
20210617150729 88 225 1.0 8.0 0.00 0.00 0.00 65 1016.8
20210617150222 88 249 2.0 10.0 0.00 0.00 0.00 65 1016.8
20210617145716 88 251 3.0 10.0 0.00 0.00 0.00 63 1017.1
20210617145211 87 260 5.0 10.0 0.00 0.00 0.00 64 1017.1
20210617144705 87 247 6.0 10.0 0.00 0.00 0.00 65 1017.5
20210617144159 87 241 4.0 10.0 0.00 0.00 0.00 65 1017.1
20210617143653 87 252 5.0 8.0 0.00 0.00 0.00 65 1017.5
20210617143147 87 187 2.0 8.0 0.00 0.00 0.00 68 1017.1
20210617142641 86 242 2.0 8.0 0.00 0.00 0.00 68 1017.5
20210617142136 86 238 2.0 8.0 0.00 0.00 0.00 69 1017.5
20210617141630 85 242 3.0 8.0 0.00 0.00 0.00 69 1017.1
20210617141124 85 204 1.0 8.0 0.00 0.00 0.00 69 1017.1
20210617140618 85 247 3.0 8.0 0.00 0.00 0.00 69 1016.8
20210617140112 84 239 3.0 8.0 0.00 0.00 0.00 69 1017.1
20210617135606 84 277 1.0 8.0 0.00 0.00 0.00 69 1016.8
20210617135101 83 249 1.0 8.0 0.00 0.00 0.00 70 1017.1
20210617134555 83 249 1.0 8.0 0.00 0.00 0.00 71 1017.1
20210617134049 82 232 0.0 5.0 0.00 0.00 0.00 73 1017.1
20210617133543 82 204 0.0 5.0 0.00 0.00 0.00 73 1017.1
20210617133037 81 251 2.0 5.0 0.00 0.00 0.00 73 1017.1
20210617132531 80 235 0.0 5.0 0.00 0.00 0.00 75 1017.1
20210617132026 80 227 0.0 5.0 0.00 0.00 0.00 76 1017.1
20210617131520 79 246 0.0 5.0 0.00 0.00 0.00 77 1017.1
20210617131014 79 211 0.0 5.0 0.00 0.00 0.00 77 1016.8
20210617130509 78 219 0.0 0.0 0.00 0.00 0.00 80 1016.8
20210617130003 77 187 0.0 0.0 0.00 0.00 0.00 82 1016.8
20210617125459 76 219 0.0 0.0 0.00 0.00 0.00 86 1016.8
20210617124956 76 230 0.0 0.0 0.00 0.00 0.00 89 1017.1
20210617124448 75 226 0.0 0.0 0.00 0.00 0.00 91 1016.8
20210617123942 75 225 0.0 0.0 0.00 0.00 0.00 92 1016.8
20210617123439 74 231 0.0 0.0 0.00 0.00 0.00 92 1016.8
20210617122930 74 233 0.0 0.0 0.00 0.00 0.00 92 1016.4
20210617122424 74 233 0.0 0.0 0.00 0.00 0.00 92 1016.4
20210617121921 73 234 0.0 0.0 0.00 0.00 0.00 92 1016.8
20210617121413 73 234 0.0 0.0 0.00 0.00 0.00 92 1016.8
20210617120907 73 234 0.0 0.0 0.00 0.00 0.00 92 1016.8
20210617120404 73 235 0.0 0.0 0.00 0.00 0.00 92 1016.4
20210617115858 72 235 0.0 0.0 0.00 0.00 0.00 92 1016.4
20210617115350 72 235 0.0 0.0 0.00 0.00 0.00 92 1016.4
20210617114847 72 235 0.0 0.0 0.00 0.00 0.00 92 1016.4
20210617114338 72 235 0.0 0.0 0.00 0.00 0.00 92 1016.4
20210617113832 72 235 0.0 0.0 0.00 0.00 0.00 91 1016.4
20210617113328 72 235 0.0 0.0 0.00 0.00 0.00 91 1016.4
20210617112821 72 227 0.0 0.0 0.00 0.00 0.00 91 1016.4
20210617112315 72 224 0.0 0.0 0.00 0.00 0.00 90 1016.4
20210617111812 72 224 0.0 0.0 0.00 0.00 0.00 90 1016.4
20210617111306 72 224 0.0 0.0 0.00 0.00 0.00 89 1016.4
20210617110800 72 226 0.0 0.0 0.00 0.00 0.00 89 1016.4
20210617110257 72 227 0.0 0.0 0.00 0.00 0.00 88 1016.1
20210617105747 72 227 0.0 0.0 0.00 0.00 0.00 88 1016.1
20210617105243 72 227 0.0 0.0 0.00 0.00 0.00 88 1016.4
20210617104740 72 227 0.0 0.0 0.00 0.00 0.00 87 1016.4
20210617104231 72 223 0.0 0.0 0.00 0.00 0.00 87 1016.4
20210617103725 72 223 0.0 0.0 0.00 0.00 0.00 87 1016.4
20210617103221 72 223 0.0 0.0 0.00 0.00 0.00 86 1016.4
20210617102714 72 223 0.0 0.0 0.00 0.00 0.00 85 1016.4
20210617102207 72 223 0.0 0.0 0.00 0.00 0.00 84 1016.4
20210617101706 72 223 0.0 0.0 0.00 0.00 0.00 83 1016.4
20210617101156 72 223 0.0 0.0 0.00 0.00 0.00 82 1016.4
20210617100651 72 223 0.0 0.0 0.00 0.00 0.00 82 1016.1
20210617100147 72 223 0.0 0.0 0.00 0.00 0.00 82 1016.4
20210617095642 73 223 0.0 0.0 0.00 0.00 0.00 82 1016.4
20210617095136 73 223 0.0 0.0 0.00 0.00 0.00 82 1016.4
20210617094629 73 223 0.0 0.0 0.00 0.00 0.00 81 1016.1
20210617094124 73 223 0.0 0.0 0.00 0.00 0.00 81 1016.4
20210617093618 73 223 0.0 0.0 0.00 0.00 0.00 80 1016.4
20210617093112 73 223 0.0 0.0 0.00 0.00 0.00 80 1016.1
20210617092607 73 224 0.0 0.0 0.00 0.00 0.00 79 1016.1
20210617092101 73 224 0.0 0.0 0.00 0.00 0.00 78 1016.1
20210617091555 74 223 0.0 0.0 0.00 0.00 0.00 77 1016.1
20210617091049 74 221 0.0 0.0 0.00 0.00 0.00 77 1016.1
20210617090543 74 221 0.0 0.0 0.00 0.00 0.00 76 1015.8
20210617090038 74 221 0.0 0.0 0.00 0.00 0.00 76 1015.8
20210617085532 74 221 0.0 0.0 0.00 0.00 0.00 75 1015.8
20210617085026 74 222 0.0 0.0 0.00 0.00 0.00 75 1015.8
20210617084520 74 221 0.0 0.0 0.00 0.00 0.00 75 1015.8
20210617084014 74 221 0.0 0.0 0.00 0.00 0.00 75 1015.8
20210617083509 74 224 0.0 0.0 0.00 0.00 0.00 76 1015.8
20210617083003 74 224 0.0 0.0 0.00 0.00 0.00 76 1015.8
20210617082457 74 224 0.0 0.0 0.00 0.00 0.00 77 1015.8
20210617081951 74 217 0.0 0.0 0.00 0.00 0.00 79 1015.8
20210617081446 74 213 0.0 0.0 0.00 0.00 0.00 78 1015.8
20210617080939 74 213 0.0 0.0 0.00 0.00 0.00 79 1015.8
20210617080434 74 209 0.0 0.0 0.00 0.00 0.00 80 1015.8
20210617075928 74 224 0.0 0.0 0.00 0.00 0.00 81 1015.8
20210617075422 74 224 0.0 0.0 0.00 0.00 0.00 81 1015.8
20210617074916 74 198 0.0 0.0 0.00 0.00 0.00 81 1015.8
20210617074411 74 195 0.0 0.0 0.00 0.00 0.00 81 1015.8
20210617073905 74 195 0.0 0.0 0.00 0.00 0.00 81 1016.1
20210617073359 74 185 0.0 0.0 0.00 0.00 0.00 81 1016.1
20210617072853 74 190 0.0 0.0 0.00 0.00 0.00 81 1016.1
20210617072348 74 210 0.0 0.0 0.00 0.00 0.00 81 1016.1
20210617071842 74 212 0.0 0.0 0.00 0.00 0.00 82 1015.8
20210617071336 74 216 0.0 0.0 0.00 0.00 0.00 82 1016.1
20210617070830 74 209 0.0 0.0 0.00 0.00 0.00 82 1015.8
20210617070325 74 209 0.0 0.0 0.00 0.00 0.00 82 1016.1
20210617065827 74 217 0.0 0.0 0.00 0.00 0.00 81 1016.1
20210617065313 74 217 0.0 0.0 0.00 0.00 0.00 80 1016.1
20210617064807 74 217 0.0 0.0 0.00 0.00 0.00 80 1016.1
20210617064301 74 217 0.0 0.0 0.00 0.00 0.00 80 1016.1
20210617063756 75 217 0.0 0.0 0.00 0.00 0.00 80 1016.1
20210617063250 75 217 0.0 0.0 0.00 0.00 0.00 79 1016.1
20210617062744 75 217 0.0 0.0 0.00 0.00 0.00 78 1016.1
20210617062239 75 217 0.0 0.0 0.00 0.00 0.00 78 1016.1
20210617061733 75 217 0.0 0.0 0.00 0.00 0.00 77 1016.4
20210617061226 76 217 0.0 0.0 0.00 0.00 0.00 77 1016.4
20210617060720 76 217 0.0 0.0 0.00 0.00 0.00 76 1016.4
20210617060214 76 217 0.0 0.0 0.00 0.00 0.00 76 1016.4
20210617055709 76 217 0.0 0.0 0.00 0.00 0.00 76 1016.4
20210617055203 76 217 0.0 0.0 0.00 0.00 0.00 75 1016.4
20210617054657 76 217 0.0 0.0 0.00 0.00 0.00 75 1016.4
20210617054153 76 217 0.0 0.0 0.00 0.00 0.00 75 1016.4
20210617053648 77 217 0.0 0.0 0.00 0.00 0.00 75 1016.4
20210617053141 76 215 0.0 0.0 0.00 0.00 0.00 75 1016.4
20210617052636 76 215 0.0 0.0 0.00 0.00 0.00 75 1016.1
20210617052434 75 212 0.0 0.0 0.00 0.00 0.00 80 1016.4
20210617052427 75 212 0.0 0.0 0.00 0.00 0.00 78 1016.4
20210617052412 76 212 0.0 0.0 0.00 0.00 0.00 76 1016.4
20210617052406 76 212 0.0 0.0 0.00 0.00 0.00 75 1016.1
20210617050103 76 212 0.0 0.0 0.00 0.00 0.00 81 1016.4
20210617045556 76 212 0.0 0.0 0.00 0.00 0.00 81 1016.4
20210617045050 76 211 0.0 0.0 0.00 0.00 0.00 80 1016.4
20210617044544 76 212 0.0 0.0 0.00 0.00 0.00 80 1016.4
20210617044044 76 212 0.0 0.0 0.00 0.00 0.00 79 1016.4
20210617043535 77 213 0.0 0.0 0.00 0.00 0.00 79 1016.4
20210617043031 77 211 0.0 0.0 0.00 0.00 0.00 78 1016.4
20210617042528 77 211 0.0 0.0 0.00 0.00 0.00 77 1016.4
20210617042019 78 203 0.0 0.0 0.00 0.00 0.00 76 1016.4
20210617041513 77 100 0.0 0.0 0.00 0.00 0.00 75 1016.4
20210617041010 77 108 0.0 0.0 0.00 0.00 0.00 76 1016.4
20210617040502 78 109 0.0 0.0 0.00 0.00 0.00 76 1016.4
20210617035955 78 124 0.0 0.0 0.00 0.00 0.00 76 1016.4
20210617035453 78 185 0.0 0.0 0.00 0.00 0.00 76 1016.4
20210617034943 78 93 0.0 0.0 0.00 0.00 0.00 76 1016.4
20210617034439 78 125 0.0 0.0 0.00 0.00 0.00 76 1016.4
20210617033933 78 145 0.0 0.0 0.00 0.00 0.00 75 1016.4
20210617033428 78 147 0.0 0.0 0.00 0.00 0.00 75 1016.1
20210617032921 78 148 0.0 0.0 0.00 0.00 0.00 75 1016.4
20210617032415 78 150 0.0 0.0 0.00 0.00 0.00 76 1016.4
20210617031909 78 151 0.0 0.0 0.00 0.00 0.00 76 1016.4
20210617031403 78 152 0.0 0.0 0.00 0.00 0.00 77 1016.4
20210617030857 78 166 0.0 0.0 0.00 0.00 0.00 77 1016.1
20210617030351 79 166 0.0 0.0 0.00 0.00 0.00 76 1016.1
20210617025845 79 160 0.0 0.0 0.00 0.00 0.00 75 1016.1
20210617025339 79 160 0.0 0.0 0.00 0.00 0.00 75 1016.1
20210617024833 79 160 0.0 0.0 0.00 0.00 0.00 75 1016.1
20210617024326 80 160 0.0 0.0 0.00 0.00 0.00 74 1016.1
20210617023821 80 160 0.0 0.0 0.00 0.00 0.00 74 1016.1
20210617023316 80 169 0.0 0.0 0.00 0.00 0.00 74 1015.8
20210617022810 81 169 0.0 0.0 0.00 0.00 0.00 73 1016.1
20210617022305 81 167 0.0 0.0 0.00 0.00 0.00 72 1015.8
20210617021758 82 121 0.0 0.0 0.00 0.00 0.00 71 1015.8
20210617021252 82 120 0.0 0.0 0.00 0.00 0.00 70 1015.8
20210617020746 82 120 0.0 0.0 0.00 0.00 0.00 69 1015.8
20210617020240 83 120 0.0 0.0 0.00 0.00 0.00 69 1015.8
20210617015733 83 123 0.0 0.0 0.00 0.00 0.00 69 1015.8
20210617015227 84 142 0.0 0.0 0.00 0.00 0.00 68 1015.8
20210617014721 84 150 0.0 0.0 0.00 0.00 0.00 67 1015.8
20210617014215 85 157 0.0 0.0 0.00 0.00 0.00 66 1015.8
20210617013712 86 157 0.0 0.0 0.00 0.00 0.00 64 1015.8
20210617013205 86 225 0.0 0.0 0.00 0.00 0.00 63 1015.8
20210617012659 87 214 0.0 0.0 0.00 0.00 0.00 62 1015.4
20210617012153 88 218 0.0 0.0 0.00 0.00 0.00 61 1015.4
20210617011649 89 210 0.0 0.0 0.00 0.00 0.00 60 1015.8
20210617011146 89 260 0.0 0.0 0.00 0.00 0.00 58 1015.8
20210617010640 90 260 0.0 0.0 0.00 0.00 0.00 57 1015.8
20210617010133 90 260 0.0 0.0 0.00 0.00 0.00 56 1015.8
20210617005628 92 240 0.0 0.0 0.00 0.00 0.00 53 1015.8
20210617005122 92 240 0.0 0.0 0.00 0.00 0.00 48 1015.8
20210617004615 93 240 0.0 0.0 0.00 0.00 0.00 45 1015.4
20210617004110 93 240 0.0 0.0 0.00 0.00 0.00 44 1015.4
20210617003603 94 240 0.0 0.0 0.00 0.00 0.00 46 1015.4
20210617003058 97 213 0.0 2.0 0.00 0.00 0.00 40 1015.4
20210617002553 98 235 0.0 2.0 0.00 0.00 0.00 37 1015.4
20210617002047 98 247 0.0 2.0 0.00 0.00 0.00 35 1015.4
20210617001541 99 131 0.0 0.0 0.00 0.00 0.00 35 1015.4
20210617001035 99 97 0.0 0.0 0.00 0.00 0.00 38 1015.4
20210617000529 100 86 0.0 0.0 0.00 0.00 0.00 36 1015.4
20210617000023 101 81 0.0 0.0 0.00 0.00 0.00 34 1015.4
20210616235517 100 92 0.0 0.0 0.00 0.00 0.00 37 1015.4
20210616235011 100 50 0.0 2.0 0.00 0.00 0.00 36 1015.4
20210616234505 100 205 0.0 2.0 0.00 0.00 0.00 37 1015.1
20210616233959 100 230 0.0 2.0 0.00 0.00 0.00 37 1015.4
20210616233452 99 168 0.0 2.0 0.00 0.00 0.00 39 1015.4
20210616232949 99 186 0.0 2.0 0.00 0.00 0.00 38 1015.1
20210616232445 99 234 0.0 5.0 0.00 0.00 0.00 40 1015.4
20210616231938 98 184 3.0 5.0 0.00 0.00 0.00 38 1015.4
20210616231431 97 255 0.0 5.0 0.00 0.00 0.00 41 1015.4
20210616230927 97 182 3.0 5.0 0.00 0.00 0.00 39 1015.4
20210616230419 97 166 2.0 8.0 0.00 0.00 0.00 40 1015.4
20210616225913 96 233 2.0 8.0 0.00 0.00 0.00 41 1015.4
20210616225409 98 195 5.0 8.0 0.00 0.00 0.00 38 1015.4
20210616224900 98 248 2.0 8.0 0.00 0.00 0.00 42 1015.4
20210616224354 98 143 1.0 5.0 0.00 0.00 0.00 38 1015.4
20210616223852 98 188 0.0 5.0 0.00 0.00 0.00 37 1015.8
20210616223343 98 206 1.0 5.0 0.00 0.00 0.00 40 1015.4
20210616222836 97 210 2.0 5.0 0.00 0.00 0.00 39 1015.8
20210616222333 98 185 3.0 5.0 0.00 0.00 0.00 41 1015.8
20210616221824 98 270 0.0 5.0 0.00 0.00 0.00 37 1015.8
20210616221318 98 166 0.0 5.0 0.00 0.00 0.00 41 1015.8
20210616220816 97 231 2.0 5.0 0.00 0.00 0.00 45 1015.8
20210616220306 98 243 2.0 5.0 0.00 0.00 0.00 42 1015.8
20210616215800 98 5 0.0 5.0 0.00 0.00 0.00 43 1015.8
20210616215257 97 299 3.0 8.0 0.00 0.00 0.00 42 1016.1
20210616214750 96 197 3.0 8.0 0.00 0.00 0.00 44 1016.1
20210616214244 98 275 0.0 5.0 0.00 0.00 0.00 45 1015.8
20210616213718 99 272 3.0 5.0 0.00 0.00 0.00 42 1015.8
20210616213215 98 256 0.0 10.0 0.00 0.00 0.00 37 1016.1
20210616212651 98 207 2.0 10.0 0.00 0.00 0.00 44 1016.1
20210616212145 100 251 0.0 5.0 0.00 0.00 0.00 38 1015.8
20210616211641 99 263 2.0 5.0 0.00 0.00 0.00 37 1016.1
20210616211133 99 275 0.0 5.0 0.00 0.00 0.00 38 1016.1
20210616210627 98 216 3.0 5.0 0.00 0.00 0.00 38 1016.1
20210616210124 98 231 0.0 10.0 0.00 0.00 0.00 42 1016.1
20210616205617 97 101 0.0 10.0 0.00 0.00 0.00 38 1016.1
20210616205111 96 240 2.0 8.0 0.00 0.00 0.00 42 1016.4
20210616204607 97 200 2.0 8.0 0.00 0.00 0.00 42 1016.4
20210616204059 97 172 3.0 8.0 0.00 0.00 0.00 39 1016.4
20210616203553 96 192 4.0 8.0 0.00 0.00 0.00 38 1016.4
20210616203047 97 227 4.0 5.0 0.00 0.00 0.00 39 1016.4
20210616202540 97 41 0.0 5.0 0.00 0.00 0.00 42 1016.4
20210616202034 96 260 1.0 8.0 0.00 0.00 0.00 41 1016.8
20210616201528 98 212 1.0 8.0 0.00 0.00 0.00 44 1016.4
20210616201022 97 172 0.0 8.0 0.00 0.00 0.00 42 1016.8
20210616200516 96 298 0.0 8.0 0.00 0.00 0.00 43 1016.8
20210616200010 97 153 2.0 5.0 0.00 0.00 0.00 40 1016.8
20210616195504 96 354 1.0 5.0 0.00 0.00 0.00 41 1016.8
20210616195000 97 339 1.0 5.0 0.00 0.00 0.00 41 1016.8
20210616194454 96 5 2.0 5.0 0.00 0.00 0.00 43 1016.8
20210616193948 96 301 0.0 5.0 0.00 0.00 0.00 42 1017.1
20210616193442 96 136 0.0 5.0 0.00 0.00 0.00 41 1017.1
20210616192936 96 339 0.0 2.0 0.00 0.00 0.00 43 1016.8